Weather History for Blythe, CA

Change the Weather History Date:

Thursday, January 23, 2014

  Actual Average Record
Temperature  
Mean Temperature 57 °F -  
Max Temperature 73 °F 67 °F 77 °F (2005)
Min Temperature 41 °F 43 °F 32 °F (1972)
Degree Days  
Heating Degree Days 8    
Growing Degree Days 7 (Base 50)    
Moisture  
Dew Point 18 °F    
Average Humidity 22    
Maximum Humidity 38    
Minimum Humidity 11    
Precipitation  
Precipitation 0.00 in - - ()
Sea Level Pressure  
Sea Level Pressure 30.00 in    
Wind  
Wind Speed 4 mph (NE)    
Max Wind Speed 13 mph    
Max Gust Speed -    
Visibility 10 miles    
Events      
Averages and records for this station are not official NWS values.
T = Trace of Precipitation, MM = Missing Value Source: NWS Daily Summary

Daily Weather History Graph

Daily Weather History Graph

Search for Another Location

Airport:

Trip Planner

Search our weather history database for the weather conditions in past years. The results will help you decide how hot, cold, wet, or windy it might be!

Date:

Astronomy

Jan. 23, 2014 Rise Set
Actual Time 6:40 AM PST 5:01 PM PST
Civil Twilight 6:13 AM PST 5:28 PM PST
Nautical Twilight 5:43 AM PST 5:58 PM PST
Astronomical Twilight 5:14 AM PST 6:27 PM PST
Moon No Moon Rise 10:40 AM PST (1/23)
Length of Visible Light 11h 14m
Length of Day
10h 21m
Waning Gibbous, 54% of the Moon is Illuminated
Jan 23
Waning Gibbous
Jan 23
Last Quarter
Jan 30
New
Feb 6
First Quarter
Feb 14
Full

Hourly Weather History & Observations

Time (PST) Temp. Windchill Dew Point Humidity Pressure Visibility Wind Dir Wind Speed Gust Speed Precip Events Conditions
12:52 AM 48.9 °F - 12.0 °F 23% 29.87 in 10.0 mi Calm Calm - N/A   Clear
1:52 AM 46.0 °F 43.1 °F 14.0 °F 28% 29.86 in 10.0 mi NW 5.8 mph - N/A   Clear
2:52 AM 45.0 °F 42.6 °F 12.0 °F 26% 29.87 in 10.0 mi NNE 4.6 mph - N/A   Clear
3:52 AM 44.1 °F - 12.9 °F 28% 29.89 in 10.0 mi Calm Calm - N/A   Clear
4:52 AM 41.0 °F 39.0 °F 16.0 °F 36% 29.91 in 10.0 mi West 3.5 mph - N/A   Clear
5:52 AM 41.0 °F 37.1 °F 15.1 °F 35% 29.94 in 10.0 mi NNE 5.8 mph - N/A   Clear
6:52 AM 42.1 °F 40.2 °F 18.0 °F 38% 29.97 in 10.0 mi East 3.5 mph - N/A   Clear
7:52 AM 48.0 °F - 15.1 °F 27% 30.00 in 10.0 mi SSW 6.9 mph - N/A   Clear
8:52 AM 53.1 °F - 15.1 °F 22% 30.02 in 10.0 mi SSE 6.9 mph - N/A   Clear
9:52 AM 60.1 °F - 24.1 °F 25% 30.04 in 10.0 mi East 4.6 mph - N/A   Clear
10:52 AM 66.0 °F - 19.9 °F 17% 30.04 in 10.0 mi Variable 3.5 mph - N/A   Clear
11:52 AM 70.0 °F - 19.0 °F 14% 30.01 in 10.0 mi ENE 4.6 mph - N/A   Clear
12:52 PM 73.0 °F - 16.0 °F 11% 29.98 in 10.0 mi Variable 5.8 mph - N/A   Clear
1:52 PM 73.9 °F - 18.0 °F 12% 29.97 in 10.0 mi East 5.8 mph - N/A   Clear
2:52 PM 73.9 °F - 21.9 °F 14% 29.98 in 10.0 mi East 5.8 mph - N/A   Clear
3:52 PM 72.0 °F - 24.1 °F 17% 29.99 in 10.0 mi East 5.8 mph - N/A   Clear
4:52 PM 68.0 °F - 21.9 °F 17% 30.01 in 10.0 mi NE 5.8 mph - N/A   Clear
5:52 PM 66.0 °F - 19.0 °F 17% 30.03 in 10.0 mi NNE 9.2 mph - N/A   Clear
6:52 PM 64.0 °F - 18.0 °F 17% 30.05 in 10.0 mi North 10.4 mph - N/A   Clear
7:52 PM 64.0 °F - 18.0 °F 17% 30.07 in 10.0 mi NNW 12.7 mph - N/A   Clear
8:52 PM 63.0 °F - 18.0 °F 18% 30.09 in 10.0 mi NNW 11.5 mph - N/A   Clear
9:52 PM 63.0 °F - 18.0 °F 18% 30.13 in 10.0 mi NNW 8.1 mph - N/A   Clear
10:52 PM 60.1 °F - 19.9 °F 21% 30.15 in 10.0 mi SE 4.6 mph - N/A   Clear
11:52 PM 55.9 °F - 21.9 °F 27% 30.16 in 10.0 mi Calm Calm - N/A   Clear